When you browse on this site, cookies collect data to enhance your experience and personalize the content and advertising you see.
Visit our Privacy Policy to learn more. By continuing to use the site, you agree to this use of cookies and data.
EN

Hourly Weather Gogolevo

Today, 21 September, Monday

Time Temperature Precipitation Wind Pressure Humidity
00:00 +13°C° 0 mm 2 mps 762 mmHg 87%
01:00 +12°C° 0 mm 3 mps 762 mmHg 87%
02:00 +12°C° 0 mm 3 mps 762 mmHg 88%
03:00 +13°C° 0 mm 2 mps 762 mmHg 89%
04:00 +12°C° 0 mm 2 mps 761 mmHg 89%
05:00 +13°C° 0 mm 2 mps 761 mmHg 87%
06:00 +13°C° 0 mm 2 mps 761 mmHg 84%
07:00 +14°C° 0 mm 2 mps 761 mmHg 82%
08:00 +14°C° 0 mm 3 mps 761 mmHg 74%
09:00 +17°C° 0 mm 3 mps 761 mmHg 67%
10:00 +18°C° 0 mm 3 mps 761 mmHg 60%
11:00 +19°C° 0 mm 2 mps 761 mmHg 56%
12:00 +20°C° 0 mm 2 mps 761 mmHg 53%
13:00 +20°C° 0 mm 2 mps 761 mmHg 49%
14:00 +20°C° 0 mm 2 mps 760 mmHg 52%
15:00 +21°C° 0 mm 1 mps 760 mmHg 54%
16:00 +20°C° 0 mm 1 mps 760 mmHg 57%
17:00 +19°C° 0 mm 1 mps 760 mmHg 57%
18:00 +18°C° 0 mm 1 mps 759 mmHg 58%
19:00 +15°C° 0 mm 2 mps 759 mmHg 58%
20:00 +15°C° 0 mm 2 mps 759 mmHg 61%
21:00 +14°C° 0 mm 3 mps 759 mmHg 65%
22:00 +14°C° 0 mm 3 mps 759 mmHg 68%
23:00 +14°C° 0 mm 3 mps 758 mmHg 71%

Tomorrow, 22 September, Tuesday

Time Temperature Precipitation Wind Pressure Humidity
00:00 +13°C° 0 mm 3 mps 758 mmHg 74%
01:00 +13°C° 0 mm 3 mps 758 mmHg 77%
02:00 +13°C° 0 mm 3 mps 758 mmHg 77%
03:00 +12°C° 0 mm 3 mps 758 mmHg 78%
04:00 +12°C° 0 mm 3 mps 757 mmHg 79%
05:00 +12°C° 0 mm 3 mps 757 mmHg 78%
06:00 +13°C° 0 mm 3 mps 758 mmHg 77%
07:00 +14°C° 0 mm 3 mps 758 mmHg 75%
08:00 +16°C° 0 mm 3 mps 757 mmHg 71%
09:00 +18°C° 0 mm 3 mps 757 mmHg 66%
10:00 +20°C° 0 mm 3 mps 757 mmHg 61%
11:00 +21°C° 0 mm 3 mps 757 mmHg 58%
12:00 +22°C° 0 mm 3 mps 757 mmHg 55%
13:00 +25°C° 0 mm 3 mps 756 mmHg 52%
14:00 +24°C° 0 mm 3 mps 756 mmHg 55%
15:00 +24°C° 0 mm 3 mps 755 mmHg 57%
16:00 +24°C° 0 mm 3 mps 755 mmHg 59%
17:00 +22°C° 0 mm 3 mps 755 mmHg 61%
18:00 +20°C° 0 mm 4 mps 754 mmHg 64%
19:00 +19°C° 0 mm 4 mps 754 mmHg 66%
20:00 +19°C° 0 mm 4 mps 754 mmHg 65%
21:00 +17°C° 0 mm 5 mps 754 mmHg 65%
22:00 +17°C° 0 mm 5 mps 753 mmHg 65%
23:00 +17°C° 0 mm 5 mps 753 mmHg 65%

Day after tomorrow, 23 September, Wednesday

Time Temperature Precipitation Wind Pressure Humidity
00:00 +17°C° 0 mm 5 mps 753 mmHg 65%
01:00 +16°C° 0 mm 5 mps 753 mmHg 65%
02:00 +16°C° 0 mm 5 mps 753 mmHg 67%
03:00 +17°C° 0 mm 4 mps 752 mmHg 69%
04:00 +15°C° 0 mm 4 mps 752 mmHg 71%
05:00 +15°C° 0 mm 4 mps 752 mmHg 71%
06:00 +17°C° 0 mm 4 mps 752 mmHg 71%
07:00 +17°C° 0 mm 4 mps 752 mmHg 71%
08:00 +18°C° 0 mm 4 mps 752 mmHg 67%
09:00 +20°C° 0 mm 4 mps 752 mmHg 63%
10:00 +22°C° 0 mm 4 mps 752 mmHg 60%
11:00 +24°C° 0 mm 3 mps 752 mmHg 57%
12:00 +25°C° 0 mm 3 mps 752 mmHg 54%
13:00 +26°C° 0 mm 3 mps 752 mmHg 51%
14:00 +26°C° 0 mm 2 mps 751 mmHg 53%
15:00 +25°C° 0 mm 2 mps 751 mmHg 56%
16:00 +25°C° 0 mm 1 mps 751 mmHg 58%
17:00 +24°C° 0 mm 2 mps 751 mmHg 61%
18:00 +21°C° 0 mm 2 mps 751 mmHg 64%
19:00 +19°C° 0 mm 2 mps 751 mmHg 67%
20:00 +19°C° 0 mm 3 mps 751 mmHg 68%
21:00 +19°C° 0 mm 3 mps 750 mmHg 70%
22:00 +18°C° 0 mm 3 mps 750 mmHg 71%
23:00 +18°C° 0 mm 3 mps 750 mmHg 73%

24 September, Thursday

Time Temperature Precipitation Wind Pressure Humidity
00:00 +18°C° 0 mm 3 mps 750 mmHg 74%
01:00 +17°C° 0 mm 3 mps 750 mmHg 76%
02:00 +17°C° 0 mm 3 mps 750 mmHg 77%
03:00 +17°C° 0 mm 3 mps 750 mmHg 79%
04:00 +17°C° 0 mm 3 mps 750 mmHg 80%
05:00 +17°C° 0 mm 3 mps 750 mmHg 80%
06:00 +17°C° 0 mm 3 mps 750 mmHg 79%
07:00 +18°C° 0 mm 3 mps 750 mmHg 79%
08:00 +19°C° 0 mm 4 mps 750 mmHg 76%
09:00 +20°C° 0 mm 4 mps 750 mmHg 73%
10:00 +21°C° 0 mm 4 mps 750 mmHg 70%
11:00 +22°C° 0.2 mm 4 mps 750 mmHg 66%
12:00 +23°C° 0.2 mm 4 mps 750 mmHg 63%
13:00 +25°C° 0.2 mm 5 mps 750 mmHg 59%
14:00 +25°C° 0 mm 4 mps 750 mmHg 59%
15:00 +23°C° 0 mm 4 mps 750 mmHg 59%
16:00 +22°C° 0 mm 3 mps 750 mmHg 59%
17:00 +21°C° 0 mm 3 mps 751 mmHg 61%
18:00 +20°C° 0 mm 3 mps 751 mmHg 62%
19:00 +19°C° 0 mm 3 mps 751 mmHg 64%
20:00 +18°C° 0 mm 3 mps 751 mmHg 67%
21:00 +17°C° 0 mm 2 mps 751 mmHg 70%
22:00 +17°C° 0 mm 2 mps 752 mmHg 74%
23:00 +17°C° 0 mm 2 mps 752 mmHg 75%

25 September, Friday

Time Temperature Precipitation Wind Pressure Humidity
00:00 +16°C° 0 mm 2 mps 751 mmHg 76%
01:00 +16°C° 0 mm 2 mps 751 mmHg 77%
02:00 +16°C° 0 mm 2 mps 751 mmHg 77%
03:00 +16°C° 0 mm 2 mps 751 mmHg 76%
04:00 +16°C° 0 mm 3 mps 751 mmHg 76%
05:00 +16°C° 0 mm 3 mps 751 mmHg 76%
06:00 +17°C° 0 mm 3 mps 751 mmHg 77%
07:00 +17°C° 0 mm 4 mps 750 mmHg 78%
08:00 +19°C° 0 mm 4 mps 750 mmHg 73%
09:00 +20°C° 0 mm 5 mps 749 mmHg 69%
10:00 +22°C° 0 mm 6 mps 749 mmHg 64%
11:00 +23°C° 0 mm 6 mps 748 mmHg 63%
12:00 +24°C° 0 mm 7 mps 747 mmHg 61%
13:00 +24°C° 0 mm 7 mps 747 mmHg 60%
14:00 +24°C° 0 mm 7 mps 746 mmHg 62%
15:00 +23°C° 0 mm 6 mps 745 mmHg 64%
16:00 +23°C° 0 mm 6 mps 745 mmHg 66%
17:00 +22°C° 0.3 mm 6 mps 744 mmHg 71%
18:00 +21°C° 0.3 mm 5 mps 744 mmHg 76%
19:00 +20°C° 0.3 mm 5 mps 744 mmHg 81%
20:00 +19°C° 0.4 mm 5 mps 744 mmHg 83%
21:00 +19°C° 0.4 mm 6 mps 744 mmHg 86%
22:00 +17°C° 0.4 mm 6 mps 744 mmHg 88%
23:00 +17°C° 0.8 mm 6 mps 743 mmHg 89%

26 September, Saturday

Time Temperature Precipitation Wind Pressure Humidity
00:00 +18°C° 0.8 mm 7 mps 743 mmHg 89%
01:00 +18°C° 0.8 mm 7 mps 743 mmHg 89%
02:00 +17°C° 3.7 mm 7 mps 743 mmHg 91%
03:00 +16°C° 3.7 mm 8 mps 743 mmHg 92%
04:00 +15°C° 3.7 mm 8 mps 743 mmHg 93%
05:00 +14°C° 1.5 mm 7 mps 744 mmHg 92%
06:00 +14°C° 1.5 mm 7 mps 744 mmHg 91%
07:00 +13°C° 1.5 mm 6 mps 745 mmHg 90%
08:00 +13°C° 0.1 mm 5 mps 746 mmHg 87%
09:00 +14°C° 0.1 mm 5 mps 747 mmHg 84%
10:00 +14°C° 0.1 mm 4 mps 748 mmHg 81%
11:00 +16°C° 0 mm 3 mps 748 mmHg 77%
12:00 +16°C° 0 mm 3 mps 749 mmHg 74%
13:00 +17°C° 0 mm 3 mps 749 mmHg 70%
14:00 +17°C° 0 mm 2 mps 750 mmHg 70%
15:00 +16°C° 0 mm 2 mps 750 mmHg 71%
16:00 +16°C° 0 mm 1 mps 750 mmHg 71%
17:00 +15°C° 0 mm 2 mps 750 mmHg 74%
18:00 +14°C° 0 mm 2 mps 750 mmHg 77%
19:00 +14°C° 0 mm 2 mps 751 mmHg 80%
20:00 +12°C° 0 mm 3 mps 751 mmHg 82%
21:00 +12°C° 0 mm 3 mps 750 mmHg 83%
22:00 +12°C° 0 mm 3 mps 750 mmHg 84%
23:00 +12°C° 0.8 mm 4 mps 750 mmHg 86%
Show more